Torna al catalogo

STARLINK-3387

AttivoComunicazioniVLEO
NORAD 51125·PAYLOAD·🇺🇸 United States

Lanciato Jan 19, 2022 da Cape Canaveral Space Force Station

Loading…

Prossimi Passaggi (prossime 24 ore)

TLE

AggiornatoSource: CelesTrak SupGP

Epoca: Sep 15, 2026, 01:10 UTC

1 51125C 22005X   26258.04909722 -.00011586  00000+0 -33157-3 0  2581
2 51125  53.1576 155.5151 0001179  76.4514 348.6338 15.35395520    15

Traccia STARLINK-3387 in tempo reale con AllMySat

Download on the App Store